User: anonymous   Login
Location: Unspecified
(0.0000°N, 0.0000°E)
Time: 08:03:25
(UTC+00:00)
Language:

METEOR-M - Orbit

View from above orbital plane
View from above orbital plane
View from above satellite
View from above satellite

Ground track
Ground track

The orbit data is extracted from the following two-line orbital elements,

1 35865U 09049A   17347.94163071 +.00000009 +00000-0 +22959-4 0  9992
2 35865 098.4128 001.5311 0002313 012.5242 347.5993 14.22128903427507
Epoch (UTC): 13 December 2017 22:35:56
Eccentricity: 0.0002313
inclination: 98.4128°
perigee height: 816 km
apogee height: 820 km
right ascension of ascending node: 1.5311°
argument of perigee: 12.5242°
revolutions per day: 14.22128903
mean anomaly at epoch: 347.5993°
orbit number at epoch: 42750

The dashed part of the orbit path shows where the satellite is in the earth's shadow,  

DLR